星链-5813 (STARLINK-5813 )

导读

STARLINK-5813(星链-5813)是美国太空探索技术公司(SpaceX)星链卫星互联网项目的卫星,于北京时间2023年3月3日发射入轨。星链计划旨在构建全球卫星互联网星座,为全球提供高速低延迟网络服务,该卫星属于星链组网的批量发射卫星之一,承担星座组网补网功能,提升全球覆盖能力。

基本信息
目录编号:
55790
目录名称:
STARLINK-5813
国际标识:
2023-028BB
轨道中心:
EARTH
卫星名称:
星链-5813
卫星全名:
星链-5813 (STARLINK-5813 )
卫星状态:
在轨 (已飞行1288 天)
发射日期:
2023-03-03 UTC
国别 :
美国 (US)
星等 :
--
该卫星已列入 空间交会检测服务 Space Conjunction Data Service (SCDS) ,当前飞行风险评估等级: 无高风险
轨道信息
数据来源 国际轨道数据 AOE轨道数据
星历时间 2026-09-11T01:28:11+0800
16小时前
查看轨道信息
2026-09-04T23:00:00+0800
6天前
查看轨道信息
半长轴 6950.195km 6950.175km
偏心率 0.0002458 0.0002609
轨道倾角 69.999° 70.001°
近地点辐角 269.697° 276.544°
升交点赤经 97.890° 113.277°
平近点角 90.390° 293.911°
近地点 570.349km 570.224km
远地点 573.767km 573.852km
周期 96.107分钟 96.107分钟
每日圈数 14.983294 14.983358
详细信息
固有亮度:
5
最大亮度:
2.5
卫星平台:
Starlink v1.5
覆盖范围:
全球
运营商:
太空探索技术公司
运营商所在国:
美国
制造商(研发单位):
太空探索技术公司
制造商所在国:
美国
使用方式:
暂无
卫星简介
星链(Starlink)计划是由太空探索技术公司(SpaceX)提出的一个巨型低轨卫星互联网星座项目,计划在2019年至2024年间在太空搭建由约1.2万颗卫星组成的“星链”网络,其中1584颗将部署在地球上空550千米处的近地轨道,并从2020年开始工作。该卫星仍在工作。
2D轨道图
3D轨道图
轨道高度分析图
轨道倾角分析图
轨道综合分析图
查看轨道综合分析图
交会数据列表
事件ID 空间交会对象 最接近时刻(TCA) 交会距离 交会风险概率(CRP) 交会风险指数(CRI) 操作
CDM_260911-162403-722305-579028
2026-09-11T
16:24:06+0000
1.758 km
极远距离
3.452083E-6 低风险 0.46
与全量物体交会距离演化趋势
与全量物体交会风险概率演化趋势